This demonstration page uses our WeatherBlox Daily Observations layout. Learn more.

Left ArrowRight Arrow

Hourly Observations for April 14, 2017

Temp ( °F °C ) Dew Point ( °F °C ) Humidity (%) Winds ( mph kmh ) Pressure ( in mb ) Visibility ( mi km ) Precip ( " mm )
12:15 am 00:15 Mostly Cloudy 61 16 52 11 72 72 S 12 19 29.94 1014 10 16 0.00 0.00
12:35 am 00:35 Mostly Clear 61 16 50 10 68 68 S 14 22 29.94 1014 10 16 0.00 0.00
12:55 am 00:55 Mostly Cloudy 59 15 50 10 72 72 S 14 22 29.97 1015 10 16 0.00 0.00
1:15 am 01:15 Mostly Cloudy 59 15 50 10 72 72 S 10 17 29.97 1015 10 16 0.00 0.00
1:35 am 01:35 Cloudy 59 15 50 10 72 72 SSE 9 15 29.94 1014 10 16 0.00 0.00
1:55 am 01:55 Cloudy 59 15 50 10 72 72 SSE 12 19 29.94 1014 10 16 0.00 0.00
2:15 am 02:15 Cloudy 57 14 50 10 77 77 SSE 12 19 29.94 1014 10 16 0.00 0.00
2:35 am 02:35 Mostly Cloudy 57 14 50 10 77 77 SSE 10 17 29.94 1014 10 16 0.00 0.00
2:55 am 02:55 Cloudy 57 14 52 11 82 82 SSE 9 15 29.91 1013 10 16 0.00 0.00
3:15 am 03:15 Cloudy 57 14 52 11 82 82 SSE 12 19 29.91 1013 10 16 0.00 0.00
3:35 am 03:35 Cloudy 59 15 52 11 77 77 SSE 13 20 29.88 1012 10 16 0.00 0.00
3:55 am 03:55 Cloudy 59 15 52 11 77 77 SSE 14 22 29.88 1012 10 16 0.00 0.00
4:15 am 04:15 Cloudy 59 15 52 11 77 77 SSE 14 22 29.88 1012 10 16 0.00 0.00
4:35 am 04:35 Cloudy 57 14 52 11 82 82 SSE 14 22 29.91 1013 10 16 0.00 0.00
4:55 am 04:55 Cloudy 57 14 52 11 82 82 SSE 17 28 29.88 1012 10 16 0.00 0.00
5:15 am 05:15 Cloudy 57 14 52 11 82 82 SSE 18 30 29.88 1012 10 16 0.00 0.00
5:35 am 05:35 Cloudy 55 13 54 12 94 94 SE 16 26 29.85 1011 10 16 0.00 0.00
5:55 am 05:55 Cloudy 57 14 54 12 88 88 SSE 13 20 29.85 1011 10 16 0.00 0.00
6:15 am 06:15 Cloudy with Nearby Thunderstorms 57 14 54 12 88 88 SSE 16 26 29.85 1011 10 16 0.00 0.00
6:35 am 06:35 Cloudy with Nearby Thunderstorms 55 13 54 12 94 94 SSE 14 22 29.85 1011 9 14 0.01 0.25
6:55 am 06:55 Cloudy with Thunderstorms 55 13 52 11 88 88 SSE 18 30 29.85 1011 9 14 0.03 0.76
7:15 am 07:15 Mostly Cloudy with Thunderstorms 55 13 52 11 88 88 S 18 30 29.85 1011 10 16 0.00 0.00
7:35 am 07:35 Cloudy with Nearby Thunderstorms 55 13 52 11 88 88 SSE 16 26 29.85 1011 10 16 0.04 1.02
7:55 am 07:55 Cloudy 55 13 52 11 88 88 S 18 30 29.85 1011 10 16 0.04 1.02
8:15 am 08:15 Cloudy 57 14 52 11 82 82 S 16 26 29.85 1011 10 16 0.00 0.00
8:35 am 08:35 Cloudy 57 14 54 12 88 88 SSE 16 26 29.85 1011 10 16 0.00 0.00
8:55 am 08:55 Cloudy 57 14 54 12 88 88 SSE 20 31 29.85 1011 10 16 0.00 0.00
9:15 am 09:15 Cloudy 57 14 54 12 88 88 SE 18 30 29.85 1011 10 16 0.00 0.00
9:35 am 09:35 Cloudy 57 14 54 12 88 88 SE 22 35 29.85 1011 10 16 0.00 0.00
9:55 am 09:55 Cloudy 57 14 54 12 88 88 SE 20 31 29.85 1011 9 14 0.00 0.00
10:15 am 10:15 Cloudy 57 14 55 13 94 94 SE 20 31 29.85 1011 7 11 0.00 0.00
10:35 am 10:35 Cloudy 57 14 55 13 94 94 SE 16 26 29.85 1011 6 10 0.00 0.00
10:55 am 10:55 Cloudy 57 14 55 13 94 94 SE 18 30 29.83 1010 7 11 0.00 0.00
11:15 am 11:15 Cloudy 59 15 55 13 88 88 SE 17 28 29.80 1009 7 11 0.00 0.00
11:35 am 11:35 Cloudy 59 15 55 13 88 88 SSE 14 22 29.80 1009 7 11 0.00 0.00
11:55 am 11:55 Cloudy 59 15 55 13 88 88 SSE 13 20 29.77 1008 4 6 0.00 0.00
12:15 pm 12:15 Cloudy 61 16 57 14 88 88 SSE 12 19 29.77 1008 4 6 0.00 0.00
12:35 pm 12:35 Cloudy 63 17 57 14 83 83 SSE 13 20 29.77 1008 7 11 0.00 0.00
12:55 pm 12:55 Cloudy 64 18 61 16 88 88 S 17 28 29.71 1006 9 14 0.00 0.00
1:15 pm 13:15 Mostly Cloudy 66 19 59 15 78 78 S 16 26 29.71 1006 10 16 0.00 0.00
1:35 pm 13:35 Cloudy 66 19 61 16 83 83 SSE 16 26 29.71 1006 10 16 0.00 0.00
1:55 pm 13:55 Cloudy 70 21 61 16 73 73 S 17 28 29.65 1004 10 16 0.00 0.00
2:15 pm 14:15 Cloudy 72 22 61 16 69 69 S 18 30 29.65 1004 10 16 0.00 0.00
2:35 pm 14:35 Cloudy 73 23 63 17 69 69 S 17 28 29.65 1004 10 16 0.00 0.00
2:55 pm 14:55 Cloudy 73 23 63 17 69 69 SSE 15 24 29.62 1003 10 16 0.00 0.00
3:15 pm 15:15 Mostly Cloudy 79 26 63 17 58 58 S 18 30 29.59 1002 10 16 0.00 0.00
3:35 pm 15:35 Mostly Cloudy 79 26 61 16 54 54 S 21 33 29.59 1002 10 16 0.00 0.00
3:55 pm 15:55 Mostly Cloudy 81 27 63 17 54 54 S 21 33 29.56 1001 10 16 0.00 0.00
4:15 pm 16:15 Mostly Cloudy 81 27 61 16 51 51 S 22 35 29.56 1001 10 16 0.00 0.00
4:35 pm 16:35 Partly Cloudy 81 27 61 16 51 51 S 22 35 29.56 1001 10 16 0.00 0.00
4:55 pm 16:55 Mostly Sunny 81 27 61 16 51 51 S 22 35 29.56 1001 10 16 0.00 0.00
5:15 pm 17:15 Sunny 81 27 61 16 51 51 S 24 39 29.56 1001 10 16 0.00 0.00
5:35 pm 17:35 Sunny 81 27 61 16 51 51 S 25 41 29.56 1001 10 16 0.00 0.00
5:55 pm 17:55 Sunny 81 27 61 16 51 51 S 26 43 29.53 1000 10 16 0.00 0.00
6:15 pm 18:15 Sunny 81 27 59 15 48 48 S 24 39 29.56 1001 10 16 0.00 0.00
6:35 pm 18:35 Sunny 79 26 59 15 51 51 S 22 35 29.56 1001 10 16 0.00 0.00
6:55 pm 18:55 Sunny 77 25 59 15 54 54 SSE 17 28 29.53 1000 10 16 0.00 0.00
7:15 pm 19:15 Sunny 75 24 59 15 57 57 SSE 16 26 29.53 1000 10 16 0.00 0.00
7:35 pm 19:35 Sunny 75 24 59 15 57 57 S 18 30 29.53 1000 10 16 0.00 0.00
7:55 pm 19:55 Sunny 75 24 57 14 54 54 S 20 31 29.53 1000 10 16 0.00 0.00
8:15 pm 20:15 Clear 73 23 57 14 57 57 SSE 21 33 29.53 1000 10 16 0.00 0.00
8:35 pm 20:35 Clear 73 23 57 14 57 57 SSE 21 33 29.53 1000 10 16 0.00 0.00
8:55 pm 20:55 Clear 73 23 57 14 57 57 SSE 21 33 29.56 1001 10 16 0.00 0.00
9:15 pm 21:15 Clear with Nearby Thunderstorms 72 22 57 14 61 61 SSE 20 31 29.56 1001 10 16 0.00 0.00
9:35 pm 21:35 Clear with Nearby Thunderstorms 72 22 57 14 61 61 SSE 22 35 29.56 1001 10 16 0.00 0.00
9:55 pm 21:55 undefined 72 22 57 14 61 61 SSE 24 39 29.56 1001 N/A 0.00 0.00
10:15 pm 22:15 Clear 72 22 57 14 61 61 S 28 44 29.56 1001 10 16 0.00 0.00
10:35 pm 22:35 Clear 72 22 57 14 61 61 S 28 44 29.59 1002 10 16 0.00 0.00
10:55 pm 22:55 Clear 70 21 57 14 64 64 S 22 35 29.59 1002 10 16 0.00 0.00
11:15 pm 23:15 Clear 70 21 55 13 60 60 S 28 44 29.59 1002 10 16 0.00 0.00
11:35 pm 23:35 Clear 70 21 57 14 64 64 S 24 39 29.59 1002 10 16 0.00 0.00
11:55 pm 23:55 Clear 68 20 57 14 69 69 S 17 28 29.65 1004 10 16 0.00 0.00

Powered by AerisWeather